TimeEDT,TemperatureF,Dew PointF,Humidity,Sea Level PressureIn,VisibilityMPH,Wind Direction,Wind SpeedMPH,Gust SpeedMPH,PrecipitationIn,Events,Conditions,WindDirDegrees,DateUTC
12:54 AM,51.1,46.9,86,30.43,10.0,Calm,Calm,-,N/A,,Overcast,0,2013-10-13 04:54:00
1:54 AM,50.0,48.0,93,30.43,10.0,Calm,Calm,-,N/A,,Overcast,0,2013-10-13 05:54:00
2:54 AM,50.0,48.0,93,30.42,10.0,Calm,Calm,-,N/A,,Overcast,0,2013-10-13 06:54:00
3:54 AM,50.0,48.0,93,30.42,10.0,Calm,Calm,-,N/A,,Overcast,0,2013-10-13 07:54:00
4:54 AM,50.0,48.0,93,30.42,10.0,Calm,Calm,-,N/A,,Overcast,0,2013-10-13 08:54:00
5:54 AM,50.0,48.0,93,30.43,10.0,Calm,Calm,-,N/A,,Overcast,0,2013-10-13 09:54:00
6:54 AM,50.0,48.0,93,30.44,10.0,Calm,Calm,-,N/A,,Overcast,0,2013-10-13 10:54:00
7:54 AM,50.0,48.0,93,30.45,10.0,Calm,Calm,-,N/A,,Overcast,0,2013-10-13 11:54:00
8:54 AM,51.1,48.0,89,30.47,10.0,Calm,Calm,-,N/A,,Overcast,0,2013-10-13 12:54:00
9:37 AM,51.8,48.2,88,30.47,7.0,Calm,Calm,-,N/A,,Overcast,0,2013-10-13 13:37:00
9:54 AM,51.1,46.9,86,30.48,10.0,South,3.5,-,N/A,,Overcast,170,2013-10-13 13:54:00
10:09 AM,51.8,46.4,82,30.47,10.0,SSE,3.5,-,N/A,,Overcast,150,2013-10-13 14:09:00
10:31 AM,51.8,46.4,82,30.47,10.0,South,3.5,-,N/A,,Overcast,180,2013-10-13 14:31:00
10:54 AM,52.0,46.9,83,30.48,10.0,Calm,Calm,-,N/A,,Overcast,0,2013-10-13 14:54:00
11:54 AM,55.0,46.9,74,30.48,10.0,Variable,3.5,-,N/A,,Overcast,0,2013-10-13 15:54:00
12:54 PM,55.0,46.0,72,30.46,10.0,Calm,Calm,-,N/A,,Overcast,0,2013-10-13 16:54:00
1:54 PM,55.0,46.9,74,30.45,10.0,Calm,Calm,-,N/A,,Overcast,0,2013-10-13 17:54:00
2:54 PM,55.0,48.0,77,30.44,10.0,South,3.5,-,N/A,,Overcast,190,2013-10-13 18:54:00
3:54 PM,55.0,48.0,77,30.43,10.0,Calm,Calm,-,N/A,,Overcast,0,2013-10-13 19:54:00
4:54 PM,55.0,46.9,74,30.42,10.0,Calm,Calm,-,N/A,,Overcast,0,2013-10-13 20:54:00
5:54 PM,54.0,48.0,80,30.41,10.0,Calm,Calm,-,N/A,,Overcast,0,2013-10-13 21:54:00
6:54 PM,53.1,46.9,80,30.42,10.0,SW,3.5,-,N/A,,Overcast,220,2013-10-13 22:54:00
7:54 PM,52.0,46.9,83,30.42,10.0,SSW,3.5,-,N/A,,Overcast,210,2013-10-13 23:54:00
8:54 PM,53.1,46.0,77,30.42,10.0,South,3.5,-,N/A,,Overcast,190,2013-10-14 00:54:00
9:54 PM,52.0,46.0,80,30.42,10.0,Calm,Calm,-,N/A,,Overcast,0,2013-10-14 01:54:00
10:54 PM,52.0,46.0,80,30.41,10.0,Calm,Calm,-,N/A,,Overcast,0,2013-10-14 02:54:00
11:54 PM,52.0,46.0,80,30.40,10.0,Calm,Calm,-,N/A,,Overcast,0,2013-10-14 03:54:00